Other Public Products
Issued by NWS Grand Forks, ND

Home | Current Version | Previous Version | Text Only | Print | Product List | Glossary On
Versions: 1 2 3 4 5 6 7 8 9 10 11 12 13 14 15 16 17 18 19 20 21 22 23 24 25 26 27 28 29 30 31 32 33 34 35 36 37 38 39 40 41 42 43 44 45 46 47 48 49 50
000
FPUS83 KFGF 051910
OPUFGF
PRAIRIE TO PINES WEATHER ROUNDUP
NATIONAL WEATHER SERVICE EASTERN NORTH DAKOTA/GRAND FORKS ND
100 PM CST THU MAR 05 2015

 **SATELLITE DATA USED TO AUGMENT SKY COVER AT AUTOMATED STATIONS**
 *****  WEATHER ACROSS EASTERN NORTH DAKOTA  *****

CITY           SKY/WX    TMP DP  RH WIND       PRES   REMARKS
GRAND FORKS    SUNNY     18   7  62 S17G25    30.23F WCI   3
GRAND FORKS AF SUNNY     21   3  45 SW16      30.20F WCI   7
GRAND CITY NWS   N/A     18 N/A N/A S26         N/A  WCI  -1
BUXTON         NOT AVBL
DEVILS LAKE    SUNNY     18   5  57 SW12      30.13S WCI   5
FARGO          SUNNY     19   2  47 S21       30.30F WCI   3
WAHPETON ARPT  CLEAR     14   1  57 S17       30.34F WCI  -3
$$

 *****  WEATHER ACROSS CENTRAL AND WESTERN NORTH DAKOTA  *****

CITY           SKY/WX    TMP DP  RH WIND       PRES   REMARKS
JAMESTOWN      SUNNY     22   9  57 S18       30.16F WCI   7
BISMARCK       SUNNY     30   6  36 S14       30.11F WCI  19
MINOT          SUNNY     20   7  57 S8        30.05S WCI  10
MINOT AFB      SUNNY     22  11  62 W12       30.05S WCI  11
GARRISON         N/A     23  10  57 SW8       30.06F WCI  14
WILLISTON      SUNNY     29  10  45 W10       30.06S WCI  20
DICKINSON      SUNNY     39  10  30 NW16G23   30.01F
HETTINGER      SUNNY     41  10  28 W21       30.05F
$$

 *****  OTHER OBSERVATIONS NORTHEAST NORTH DAKOTA  *****

CITY           SKY/WX    TMP DP  RH WIND       PRES   REMARKS
WALHALLA         N/A     16   5  62 SW10      30.15F WCI   3
LANGDON        NOT AVBL
CAVALIER       FAIR      16   5  62 S16       30.16F WCI   0
GRAFTON        NOT AVBL
CANDO          FAIR      19   7  58 S13       30.10F WCI   7
FORT TOTTEN      N/A     20   4  51 S9        29.95S WCI   9
ROLLA          FAIR      12   0  57 SW16      30.05F WCI  -4
RUGBY          FAIR      16   9  73 SW12      30.09S WCI   3
 ***** THE ABOVE OBSERVATIONS ARE NON NWS ARE NOT QUALITY
        CONTROLLED AND MAY MIS-REPORT RAIN FOR SNOW...
$$

 *****  OTHER OBSERVATIONS SOUTHEAST NORTH DAKOTA *****

CITY           SKY/WX    TMP DP  RH WIND       PRES   REMARKS
COOPERSTOWN    NOT AVBL
VALLEY CITY    FLURRIES  16   9  73 S23       30.20F WCI  -2
OAKES            N/A     16   5  62 S21G26    30.25F WCI  -2
GWINNER        CLEAR     21   5  49 SW21      30.27F WCI   6
BUFFALO        NOT AVBL
WYNDMERE       NOT AVBL
 ***** THE ABOVE OBSERVATIONS ARE NON NWS ARE NOT QUALITY
       CONTROLLED AND MAY MIS-REPORT RAIN FOR SNOW...
$$

  *****  WEATHER ACROSS NORTHERN MINNESOTA  *****

CITY           SKY/WX    TMP DP  RH WIND       PRES   REMARKS
FLAG ISLAND    SUNNY      7  -6  56 S17       30.19F WCI -12
WARROAD        SUNNY     10  -4  52 SW14      30.22F WCI  -5
ROSEAU         SUNNY     12   0  57 S17       30.21F WCI  -5
HALLOCK        NOT AVBL
THF RVR FALLS  SUNNY     10   1  67 S20       30.24F WCI  -8
HALSTAD        NOT AVBL
FOSSTON        SUNNY     12   0  57 S17       30.26F WCI  -5
BAUDETTE       SUNNY     12  -6  44 SW15      30.22F WCI  -4
WASKISH        SUNNY     12  -2  52 SW8       30.27F WCI   1
CROOKSTON      SUNNY     18   7  62 SW23      30.26F WCI   0
$$
  *****  WEATHER ACROSS CENTRAL AND WEST MINNESOTA  *****

CITY           SKY/WX    TMP DP  RH WIND       PRES   REMARKS
BEMIDJI        SUNNY     11  -5  48 SW8       30.27F WCI   0
PARK RAPIDS    SUNNY     10  -5  50 SW10      30.30F WCI  -4
WADENA         SUNNY      9  -6  52 S9        30.34F WCI  -5
DETROIT LAKES  SUNNY     12  -2  52 S13       30.30F WCI  -3
MOORHEAD       SUNNY     16   0  48 S17G26    30.31F WCI   0
FERGUS FALLS   SUNNY      9  -4  56 S16G22    30.39F WCI  -9
ELBOW LAKE     FAIR       9  -1  63 S16       30.36F WCI  -8
MORRIS MN      SUNNY     12   1  62 S14       30.37F WCI  -3
STAPLES        SUNNY      9  -6  52 S9        30.36F WCI  -5
WHEATON        SUNNY     10   1  67 S13G20    30.38F WCI  -5
$$
  *****  WEATHER ELSEWHERE ACROSS MINNESOTA  *****

CITY           SKY/WX    TMP DP  RH WIND       PRES   REMARKS
DULUTH         SUNNY      9  -9  44 SW13      30.31F WCI  -7
INTRNTL FALLS  SUNNY     11  -8  42 SW8       30.25F WCI  -1
ELY            SUNNY      9 -11  40 W7        30.26F WCI  -3
CLOQUET        SUNNY      9 -11  40 SW13      30.34F WCI  -7
BRAINERD       SUNNY      8  -6  52 SW13      30.37F WCI  -8
HIBBING        SUNNY     10 -11  38 SW12G17   30.30F WCI  -5
ALEXANDRIA     SUNNY      7  -3  64 S12       30.37F WCI  -8
SAINT CLOUD    SUNNY     10  -3  55 SW9       30.43F WCI  -3
MINNEAPOLIS    SUNNY      9  -5  53 SW6       30.48F WCI  -1
$$

  *****  WEATHER ACROSS SOUTH DAKOTA  *****

CITY           SKY/WX    TMP DP  RH WIND       PRES   REMARKS
SIOUX FALLS    SUNNY     20   3  48 SW12G18   30.39F WCI   8
BROOKINGS      NOT AVBL
WATERTOWN      SUNNY     14   4  64 S13G22    30.30F WCI   0
HURON          SUNNY     23   9  55 S14G23    30.31F WCI  11
SISSETON       NOT AVBL
ABERDEEN       SUNNY     15   5  64 S17       30.30F WCI  -1
MITCHELL       SUNNY     28   6  39 S15G22    30.34F WCI  16
PIERRE         SUNNY     25  12  58 S13       30.22F WCI  14
MOBRIDGE       SUNNY     30   5  34 S17G26    30.13F WCI  18
RAPID CITY     MOSUNNY   40  12  32 CALM      30.12S
$$

  *****  SOME WEATHER IN NEARBY STATES *****

CITY           SKY/WX    TMP DP  RH WIND       PRES   REMARKS
GLASGOW MT     SUNNY     40  11  30 W10       30.08S
GREAT FALLS MT SUNNY     49   8  19 W23G32    30.10F
CHEYENNE WY    MOSUNNY   37  12  35 W10G20    30.18R
SCOTTSBLUFF NE MOSUNNY   43  15  32 W18       30.21F
OMAHA NE       SUNNY     23   1  38 SW5       30.51F WCI  17
DES MOINES IA  SUNNY     16  -3  43 W7        30.55F WCI   6
DAVENPORT IA   SUNNY      9  -2  61 NW9       30.56F WCI  -4
CHICAGO IL     SUNNY     15  -4  42 NW12      30.47F WCI   2
EAU CLAIRE WI  SUNNY      6  -8  52 W8        30.47F WCI  -7
LA CROSSE WI   SUNNY     12  -6  44 N6        30.52F WCI   3
$$

  *****  SOME NATIONAL WEATHER *****

CITY           SKY/WX    TMP DP  RH WIND       PRES   REMARKS
LA GUARDIA NY  SNOW      23  19  85 NW13      30.14F VSB 1/4 WCI  11
RALEIGH NC     LGT RAIN  39  35  86 NE14G28   30.04S FOG
ATLANTA GA     CLOUDY    44  41  89 NW15      30.05F
NEW ORLEANS LA CLOUDY    42  36  79 N23G33    30.25F
OKLAHOMA CITY  SUNNY     37  11  34 NW7       30.55F
ALBUQUERQUE NM SUNNY     42  12  29 E5        30.40F
SALT LAKE CITY MOSUNNY   41  22  46 S6        30.45S
LOS ANGELES CA MOSUNNY   69  25  19 VRB5      30.26F
BOISE ID       SUNNY     48  16  27 CALM      30.40F
SEATTLE WA     MOSUNNY   51  28  41 CALM      30.39S
$$

*** WEATHER ACROSS MANITOBA...SASKATCHEWAN AND ONTARIO ***
                ***ONTARIO***

CITY           SKY/WX    TMP DP  RH WIND       PRES   REMARKS
GERALDTON      SUNNY      5 -13  43 SW14G21   30.15F WCI -12
THUNDER BAY    SUNNY     10  -9  40 SW10      30.30F WCI  -3
SIOUX LOOKOUT  SUNNY      7 -11  43 SW10      30.14F WCI  -8
TORONTO        MOSUNNY   12  -6  44 NW6       30.32F WCI   3
BIG TROUT LK   SUNNY      5  -9  51 W15G21    29.94F WCI -13
PICKLE LAKE    SUNNY      9 -13  37 W13G21    30.03F WCI  -7
DRYDEN         SUNNY      7  -9  47 SW15G23   30.15F WCI -11
KENORA         NOT AVBL
$$
                *** MANITOBA***

CITY           SKY/WX    TMP DP  RH WIND       PRES   REMARKS
BRANDON        MOSUNNY    3  -6  66 W3        30.04F
DAUPHIN        SUNNY     18   3  53 W6        29.94F WCI   9
ISLAND LAKE    CLOUDY     7  -9  47 SW12      29.90F WCI  -9
PILOT MOUND      N/A      7   0  72 S14         N/A  WCI -10
THE PAS        CLOUDY    12  -4  48 W14       29.77F WCI  -3
THOMPSON       CLOUDY     7  -9  47 SW13      29.71F WCI  -9
WINNIPEG       MOSUNNY    7  -4  61 S22       30.15F WCI -14
LYNN LAKE      SUNNY     10  -4  52 W12G17    29.61F WCI  -4
CHURCHILL      CRYSTALS  -6 -13  71 S10       29.70F WCI -23
GILLAM         CLOUDY     7  -9  47 S13       29.76F WCI  -9
$$
                ***SASKATCHEWAN***

CITY           SKY/WX    TMP DP  RH WIND       PRES   REMARKS
ESTEVAN        MOSUNNY   19   9  63 SW12      30.02S WCI   7
KINDERSLEY     MOSUNNY   30  21  69 W16       29.97R WCI  19
LLOYDMINSTER   PTSUNNY   28  16  59 W15G21    29.93R WCI  17
PRINCE ALBERT  MOSUNNY   21   7  53 NW16      29.85F WCI   7
REGINA         MOSUNNY   12   5  73 S8        29.96F WCI   1
YORKTON        MOSUNNY   12   0  57 SW13G21   29.89F WCI  -3



USA.gov is the U.S. government's official web portal to all federal, state and local government web resources and services.